RH
33 32 32 32 30 28 27 27 26 24 24 21 19 16 15 15 13 11 10 10 16 16 15 15 17 17 18 19 19 19 21 23 19 16 13 12 13 25 27 26 28 34 35 32 33
37 39 38 35 33 31 30 27 28 25 23 22 21 19 15 15 13 11 12 14 16 16 16 17 15 16 17 21 21 22 25 20 15 14 14 14 14 25 27 29 30 33 34 32 31
39 38 36 36 35 34 30 27 25 25 23 20 19 19 17 15 13 16 16 16 16 17 17 17 18 16 16 19 24 23 22 17 17 16 16 16 15 21 31 32 34 34 28 34 34
41 40 38 35 34 34 31 29 27 25 24 21 18 18 16 15 13 20 19 16 16 15 15 17 20 22 19 18 17 25 20 19 19 20 20 19 17 23 32 31 36 27 26 34 37
47 45 44 38 36 32 32 31 28 27 26 24 21 19 18 19 12 10 15 15 15 11 11 14 22 25 24 19 19 20 20 21 22 23 23 22 19 20 31 36 33 28 26 33 36
42 45 43 43 41 37 36 31 30 28 26 27 27 24 28 27 12 12 11 10 12 11 12 14 15 26 24 24 22 18 20 21 23 23 26 26 22 24 22 32 30 29 26 29 33
45 44 43 41 38 38 34 32 33 32 34 29 28 26 28 17 13 11 10 10 12 12 12 13 16 16 19 21 24 24 24 22 25 26 28 30 25 22 19 30 30 29 26 28 32
54 53 49 49 42 39 38 36 36 37 38 34 31 28 27 15 13 15 15 10 9 11 11 14 17 18 20 21 26 31 30 30 25 29 31 38 25 23 22 22 28 31 29 31 34
55 55 56 51 43 39 37 38 35 36 34 36 36 33 26 19 16 18 18 17 16 14 14 16 19 20 21 24 33 35 37 35 32 32 36 43 30 26 26 23 26 28 29 34 35
53 52 51 47 43 41 44 36 36 43 47 44 42 41 25 22 20 19 20 20 21 21 20 19 22 24 25 33 39 43 44 39 37 36 45 45 36 30 29 25 25 26 29 32 34
47 44 43 39 34 33 40 35 40 45 46 42 41 39 31 29 23 20 21 19 21 23 22 22 26 28 29 33 34 39 45 45 42 45 55 50 42 34 33 28 23 24 25 29 33
30 29 29 31 30 35 47 47 53 58 55 38 32 31 25 30 31 19 24 21 21 28 28 30 32 29 32 34 37 40 44 48 50 54 58 55 44 40 37 28 26 27 28 31 36
25 23 20 19 15 18 26 32 40 44 48 38 34 33 31 27 25 16 23 23 22 26 33 35 31 37 41 44 45 46 49 55 61 61 60 57 50 40 30 28 34 32 30 37 39
17 18 15 9 12 16 24 27 29 32 42 29 33 36 33 31 30 17 17 23 25 31 38 42 37 39 45 49 52 57 51 54 68 71 68 62 62 44 33 36 38 36 35 36 39
22 18 18 13 13 12 17 20 24 23 42 20 35 35 35 31 30 26 27 26 31 38 42 44 45 47 49 48 52 59 59 72 76 79 79 72 73 46 35 39 40 39 35 34 35
23 22 16 16 17 17 16 17 19 35 31 21 37 40 41 38 37 35 32 31 33 40 44 41 42 43 44 51 55 59 70 80 83 86 91 70 70 53 40 40 40 41 39 39 39
22 22 20 17 17 18 15 20 32 45 16 39 40 44 47 45 39 36 34 35 40 47 46 41 40 38 44 53 60 64 80 90 94 96 81 60 66 49 41 43 43 45 42 41 41
21 21 18 17 19 19 22 33 45 23 27 35 44 43 46 54 48 41 41 40 40 46 45 46 37 47 51 55 64 68 78 89 90 88 72 62 67 50 40 46 50 48 44 41 40
24 23 18 16 21 22 30 40 28 26 28 31 49 59 58 62 50 45 45 42 41 50 50 44 43 46 49 52 64 80 88 85 99 94 92 75 65 51 47 48 53 51 46 41 41
29 23 24 25 26 30 37 34 29 27 29 31 56 83 80 70 63 55 44 49 47 49 51 53 55 46 48 58 67 80 85 97 98 95 95 75 68 69 64 59 55 51 50 51 44
32 26 34 35 37 43 47 43 36 30 29 33 46 79 94 83 73 66 57 65 61 59 56 62 60 62 58 67 75 87 92 97 93 91 95 91 93 79 79 69 62 58 58 60 49
33 34 39 46 53 54 54 54 50 46 38 40 39 54 88 93 79 79 63 84 82 66 70 72 76 78 65 56 63 74 82 97 99 95 92 96 86 87 84 78 70 70 71 68 60
39 37 43 58 65 67 61 65 69 63 59 50 47 56 87 96 95 88 85 80 79 77 81 74 77 73 68 66 67 82 85 91 95 95 97 96 89 91 89 89 88 88 83 76 72
48 47 48 62 63 67 65 61 58 68 64 59 52 53 70 87 93 84 86 77 71 74 76 69 69 70 72 77 81 89 87 92 96 98 95 92 91 94 95 94 95 91 91 85 79
54 58 58 61 66 67 70 71 66 63 67 67 55 57 71 87 86 90 81 81 80 75 76 69 62 67 61 59 64 63 74 86 96 96 98 81 87 86 92 93 95 97 91 85 85
58 60 59 59 65 66 68 66 66 74 89 84 73 62 70 96 88 83 78 79 79 76 76 71 65 67 61 49 54 52 45 57 66 83 89 92 87 87 90 92 97 97 95 88 83
65 76 78 69 68 68 61 62 63 69 84 89 88 79 67 63 84 84 76 70 69 68 65 59 65 69 62 51 48 47 47 52 63 73 80 83 82 88 94 92 97 97 95 94 93